Volver al catálogo

DELTA 1 DEB

ActivoPO
NORAD 12291·DEBRIS·🇺🇸 United States

Lanzado Mar 5, 1978 desde Vandenberg Space Force Base

Loading…

Próximos Pases (próximas 24 horas)

TLE

ActualizadoSource: Space-Track

Época: Sep 14, 2026, 02:21 UTC

1 12291U 78026EK  26257.09844515  .00001397  00000-0  49458-3 0  9999
2 12291  99.2759 101.6089 0041325 156.5227 320.7126 14.35861682346442

Sigue DELTA 1 DEB en tiempo real con AllMySat

Download on the App Store